User: anonymous   Login
Location: Melbourne
(37.8170°S, 144.9670°E)
Time: 00:55:22
(UTC+10:00)
Language:

Cosmos 962 Rocket - Orbit

View from above orbital plane
View from above orbital plane
View from above satellite
View from above satellite

Ground track
Ground track

The orbit data is extracted from the following two-line orbital elements,

1 10461U 77107B   16236.94837284 -.00000000 +00000-0 -15185-4 0  9993
2 10461 082.9459 234.0548 0031909 259.6640 117.8628 13.76764038949595
Epoch (UTC): 23 August 2016 22:45:39
Eccentricity: 0.0031909
inclination: 82.9459°
perigee height: 952 km
apogee height: 999 km
right ascension of ascending node: 234.0548°
argument of perigee: 259.6640°
revolutions per day: 13.76764038
mean anomaly at epoch: 117.8628°
orbit number at epoch: 94959

The dashed part of the orbit path shows where the satellite is in the earth's shadow,  

DLR